• In Russia
  • List of Countries
  • For 7 days
  • Water Temperature
  • Satellite Maps
  • Weather Map
  • Weather Widgets
  • user-avatar
    Login

    Hourly Weather Newcastle

    Today, 10 December, Saturday

    Time Temperature Precipitation Wind Pressure Humidity
    00:00 +17°C° 0 mm 3 mps 763 mmHg 84%
    01:00 +17°C° 0 mm 3 mps 763 mmHg 81%
    02:00 +17°C° 0 mm 2 mps 764 mmHg 80%
    03:00 +18°C° 0 mm 2 mps 764 mmHg 80%
    04:00 +17°C° 0 mm 2 mps 764 mmHg 82%
    05:00 +18°C° 0 mm 2 mps 764 mmHg 76%
    06:00 +19°C° 0 mm 2 mps 765 mmHg 70%
    07:00 +20°C° 0 mm 2 mps 765 mmHg 65%
    08:00 +21°C° 0 mm 2 mps 765 mmHg 60%
    09:00 +23°C° 0 mm 2 mps 765 mmHg 56%
    10:00 +25°C° 0 mm 3 mps 765 mmHg 51%
    11:00 +25°C° 0 mm 3 mps 765 mmHg 49%
    12:00 +26°C° 0 mm 3 mps 765 mmHg 48%
    13:00 +27°C° 0 mm 4 mps 764 mmHg 47%
    14:00 +26°C° 0 mm 4 mps 764 mmHg 48%
    15:00 +26°C° 0 mm 4 mps 763 mmHg 49%
    16:00 +26°C° 0 mm 5 mps 763 mmHg 51%
    17:00 +23°C° 0 mm 5 mps 763 mmHg 57%
    18:00 +22°C° 0 mm 5 mps 764 mmHg 63%
    19:00 +20°C° 0 mm 5 mps 764 mmHg 69%
    20:00 +20°C° 0 mm 5 mps 765 mmHg 72%
    21:00 +19°C° 0 mm 5 mps 765 mmHg 75%
    22:00 +19°C° 0 mm 5 mps 765 mmHg 78%
    23:00 +17°C° 0 mm 5 mps 765 mmHg 82%

    Tomorrow, 11 December, Sunday

    Time Temperature Precipitation Wind Pressure Humidity
    00:00 +18°C° 0 mm 4 mps 765 mmHg 86%
    01:00 +17°C° 0 mm 4 mps 765 mmHg 89%
    02:00 +15°C° 0 mm 4 mps 765 mmHg 91%
    03:00 +15°C° 0 mm 4 mps 765 mmHg 93%
    04:00 +14°C° 0 mm 3 mps 765 mmHg 95%
    05:00 +17°C° 0 mm 3 mps 765 mmHg 87%
    06:00 +19°C° 0 mm 3 mps 765 mmHg 80%
    07:00 +21°C° 0 mm 3 mps 765 mmHg 72%
    08:00 +25°C° 0 mm 3 mps 765 mmHg 62%
    09:00 +27°C° 0 mm 3 mps 765 mmHg 53%
    10:00 +30°C° 0 mm 3 mps 765 mmHg 43%
    11:00 +31°C° 0 mm 3 mps 764 mmHg 41%
    12:00 +33°C° 0 mm 4 mps 764 mmHg 38%
    13:00 +34°C° 0 mm 5 mps 764 mmHg 35%
    14:00 +33°C° 0 mm 5 mps 763 mmHg 42%
    15:00 +30°C° 0 mm 6 mps 763 mmHg 48%
    16:00 +28°C° 0 mm 6 mps 763 mmHg 54%
    17:00 +27°C° 0 mm 6 mps 764 mmHg 61%
    18:00 +24°C° 0 mm 6 mps 764 mmHg 69%
    19:00 +22°C° 0 mm 5 mps 764 mmHg 76%
    20:00 +21°C° 0.3 mm 5 mps 765 mmHg 81%
    21:00 +20°C° 0.3 mm 5 mps 765 mmHg 86%
    22:00 +19°C° 0.3 mm 5 mps 766 mmHg 91%
    23:00 +18°C° 0.1 mm 4 mps 766 mmHg 92%

    Day after tomorrow, 12 December, Monday

    Time Temperature Precipitation Wind Pressure Humidity
    00:00 +18°C° 0.1 mm 4 mps 765 mmHg 94%
    01:00 +17°C° 0.1 mm 4 mps 765 mmHg 95%
    02:00 +17°C° 0 mm 4 mps 765 mmHg 95%
    03:00 +16°C° 0 mm 3 mps 765 mmHg 96%
    04:00 +16°C° 0 mm 3 mps 765 mmHg 96%
    05:00 +17°C° 0 mm 3 mps 765 mmHg 91%
    06:00 +19°C° 0 mm 3 mps 766 mmHg 86%
    07:00 +21°C° 0 mm 3 mps 766 mmHg 81%
    08:00 +25°C° 0 mm 3 mps 766 mmHg 69%
    09:00 +28°C° 0 mm 3 mps 766 mmHg 56%
    10:00 +31°C° 0 mm 3 mps 765 mmHg 44%
    11:00 +33°C° 0 mm 4 mps 765 mmHg 41%
    12:00 +34°C° 0 mm 4 mps 764 mmHg 37%
    13:00 +35°C° 0 mm 5 mps 764 mmHg 33%
    14:00 +35°C° 0 mm 5 mps 763 mmHg 35%
    15:00 +34°C° 0 mm 6 mps 763 mmHg 38%
    16:00 +33°C° 0 mm 6 mps 762 mmHg 40%
    17:00 +30°C° 0 mm 6 mps 763 mmHg 46%
    18:00 +28°C° 0 mm 6 mps 763 mmHg 53%
    19:00 +26°C° 0 mm 6 mps 763 mmHg 60%
    20:00 +24°C° 0 mm 6 mps 763 mmHg 64%
    21:00 +23°C° 0 mm 5 mps 764 mmHg 68%
    22:00 +22°C° 0 mm 5 mps 764 mmHg 72%
    23:00 +21°C° 0 mm 5 mps 763 mmHg 73%

    13 December, Tuesday

    Time Temperature Precipitation Wind Pressure Humidity
    00:00 +21°C° 0 mm 5 mps 763 mmHg 75%
    01:00 +20°C° 0 mm 5 mps 762 mmHg 77%
    02:00 +20°C° 0 mm 4 mps 762 mmHg 76%
    03:00 +20°C° 0 mm 4 mps 762 mmHg 75%
    04:00 +20°C° 0 mm 4 mps 762 mmHg 75%
    05:00 +22°C° 0 mm 4 mps 762 mmHg 67%
    06:00 +25°C° 0 mm 4 mps 762 mmHg 59%
    07:00 +27°C° 0 mm 3 mps 762 mmHg 51%
    08:00 +30°C° 0 mm 3 mps 762 mmHg 44%
    09:00 +33°C° 0 mm 3 mps 762 mmHg 38%
    10:00 +35°C° 0 mm 3 mps 762 mmHg 31%
    11:00 +36°C° 0 mm 4 mps 761 mmHg 29%
    12:00 +37°C° 0 mm 4 mps 760 mmHg 27%
    13:00 +39°C° 0 mm 5 mps 759 mmHg 24%
    14:00 +37°C° 0 mm 5 mps 759 mmHg 26%
    15:00 +38°C° 0 mm 6 mps 758 mmHg 27%
    16:00 +36°C° 0 mm 6 mps 757 mmHg 28%
    17:00 +34°C° 0 mm 6 mps 758 mmHg 32%
    18:00 +33°C° 0 mm 6 mps 758 mmHg 36%
    19:00 +30°C° 0 mm 6 mps 758 mmHg 40%
    20:00 +29°C° 0 mm 6 mps 758 mmHg 43%
    21:00 +28°C° 0 mm 5 mps 759 mmHg 46%
    22:00 +27°C° 0 mm 5 mps 759 mmHg 48%
    23:00 +26°C° 0 mm 5 mps 758 mmHg 49%

    14 December, Wednesday

    Time Temperature Precipitation Wind Pressure Humidity
    00:00 +26°C° 0 mm 5 mps 758 mmHg 49%
    01:00 +25°C° 0 mm 4 mps 757 mmHg 49%
    02:00 +25°C° 0 mm 4 mps 757 mmHg 47%
    03:00 +26°C° 0 mm 4 mps 757 mmHg 44%
    04:00 +26°C° 0 mm 4 mps 756 mmHg 42%
    05:00 +27°C° 0 mm 4 mps 757 mmHg 40%
    06:00 +29°C° 0 mm 5 mps 757 mmHg 38%
    07:00 +30°C° 0 mm 5 mps 757 mmHg 36%
    08:00 +33°C° 0 mm 5 mps 757 mmHg 33%
    09:00 +35°C° 0 mm 5 mps 757 mmHg 29%
    10:00 +37°C° 0 mm 5 mps 757 mmHg 25%
    11:00 +38°C° 0 mm 4 mps 756 mmHg 23%
    12:00 +40°C° 0 mm 4 mps 756 mmHg 21%
    13:00 +40°C° 0 mm 3 mps 755 mmHg 19%
    14:00 +41°C° 0 mm 4 mps 755 mmHg 22%
    15:00 +40°C° 0 mm 4 mps 755 mmHg 24%
    16:00 +39°C° 0 mm 5 mps 754 mmHg 26%
    17:00 +36°C° 0 mm 5 mps 755 mmHg 29%
    18:00 +35°C° 0 mm 4 mps 755 mmHg 32%
    19:00 +33°C° 0 mm 4 mps 756 mmHg 34%
    20:00 +30°C° 0 mm 4 mps 756 mmHg 46%
    21:00 +28°C° 0 mm 5 mps 757 mmHg 57%
    22:00 +26°C° 0 mm 5 mps 757 mmHg 68%
    23:00 +25°C° 0 mm 5 mps 757 mmHg 75%

    15 December, Thursday

    Time Temperature Precipitation Wind Pressure Humidity
    00:00 +23°C° 0 mm 6 mps 758 mmHg 81%
    01:00 +22°C° 0 mm 6 mps 758 mmHg 87%
    02:00 +21°C° 0.1 mm 6 mps 758 mmHg 87%
    03:00 +21°C° 0.1 mm 6 mps 759 mmHg 86%
    04:00 +21°C° 0.1 mm 5 mps 759 mmHg 86%
    05:00 +21°C° 0.1 mm 5 mps 760 mmHg 86%
    06:00 +21°C° 0.1 mm 5 mps 760 mmHg 87%
    07:00 +21°C° 0.1 mm 5 mps 761 mmHg 87%
    08:00 +21°C° 0.1 mm 5 mps 761 mmHg 87%
    09:00 +21°C° 0.1 mm 5 mps 761 mmHg 86%
    10:00 +21°C° 0.1 mm 5 mps 761 mmHg 86%
    11:00 +21°C° 0.1 mm 5 mps 761 mmHg 83%
    12:00 +21°C° 0.1 mm 5 mps 761 mmHg 81%
    13:00 +21°C° 0.1 mm 5 mps 761 mmHg 79%
    14:00 +21°C° 0.1 mm 5 mps 761 mmHg 79%
    15:00 +21°C° 0.1 mm 5 mps 761 mmHg 79%
    16:00 +21°C° 0.1 mm 5 mps 761 mmHg 79%
    17:00 +20°C° 0.5 mm 5 mps 761 mmHg 84%
    18:00 +19°C° 0.5 mm 5 mps 762 mmHg 89%
    19:00 +19°C° 0.5 mm 4 mps 762 mmHg 94%
    20:00 +19°C° 2.1 mm 4 mps 762 mmHg 95%
    21:00 +18°C° 2.1 mm 4 mps 763 mmHg 96%
    22:00 +18°C° 2.1 mm 4 mps 763 mmHg 97%
    23:00 +18°C° 0.8 mm 4 mps 762 mmHg 97%
    Show more